KAY50 HKJK-HUEN

Flight info

Callsign KAY50
Flight time 0h 43m
Altitude 36000
Route APKUB1A APKUB UQ293 IMPOG IMPOG1A
Aircraft A359/H-SDE2FGHIJ1J3J4J5M1RWXYZ/LB1D1

Departure

Time 2026-04-26 12:30
Airport Jomo Kenyatta International Airport (HKJK)

Arrival

Time 2026-04-26 13:13
Airport Entebbe International Airport (HUEN)
Time Latitude Longitude Altitude Speed Heading
2026-04-26 11:51 -1.33169 36.92161 5336 ft 0 kts 252°
2026-04-26 12:15 -1.33165 36.92172 5337 ft 3 kts 251°
2026-04-26 12:15 -1.33158 36.92191 5336 ft 3 kts 251°
2026-04-26 12:16 -1.33153 36.92207 5336 ft 3 kts 257°
2026-04-26 12:16 -1.33151 36.92226 5335 ft 3 kts 287°
2026-04-26 12:16 -1.33160 36.92241 5335 ft 3 kts 325°
2026-04-26 12:16 -1.33178 36.92251 5333 ft 3 kts 336°
2026-04-26 12:17 -1.33194 36.92258 5335 ft 3 kts 325°
2026-04-26 12:17 -1.33211 36.92270 5336 ft 3 kts 330°
2026-04-26 12:17 -1.33226 36.92278 5336 ft 3 kts 339°
2026-04-26 12:17 -1.33245 36.92283 5335 ft 3 kts 356°
2026-04-26 12:18 -1.33265 36.92283 5336 ft 3 kts
2026-04-26 12:18 -1.33282 36.92282 5331 ft 0 kts 358°
2026-04-26 12:18 -1.33282 36.92283 5331 ft 0 kts 358°
2026-04-26 12:22 -1.33265 36.92282 5336 ft 7 kts 354°
2026-04-26 12:22 -1.33196 36.92257 5335 ft 14 kts 332°
2026-04-26 12:22 -1.33094 36.92220 5332 ft 17 kts 350°
2026-04-26 12:22 -1.32970 36.92228 5333 ft 19 kts 17°
2026-04-26 12:23 -1.32894 36.92260 5336 ft 7 kts 17°
2026-04-26 12:23 -1.32849 36.92245 5334 ft 8 kts 328°
2026-04-26 12:23 -1.32800 36.92209 5337 ft 10 kts 323°
2026-04-26 12:23 -1.32784 36.92175 5337 ft 4 kts 270°
2026-04-26 12:24 -1.32788 36.92160 5337 ft 1 kts 246°
2026-04-26 12:24 -1.32805 36.92131 5338 ft 9 kts 237°
2026-04-26 12:24 -1.32854 36.92060 5340 ft 14 kts 232°
2026-04-26 12:25 -1.32979 36.91895 5341 ft 12 kts 233°
2026-04-26 12:25 -1.32997 36.91835 5343 ft 6 kts 286°
2026-04-26 12:25 -1.32981 36.91809 5346 ft 4 kts 311°
2026-04-26 12:25 -1.32961 36.91794 5345 ft 4 kts 324°
2026-04-26 12:26 -1.32933 36.91773 5347 ft 6 kts 324°
2026-04-26 12:26 -1.32886 36.91739 5347 ft 10 kts 324°
2026-04-26 12:26 -1.32861 36.91722 5346 ft 0 kts 324°
2026-04-26 12:27 -1.32856 36.91719 5346 ft 3 kts 324°
2026-04-26 12:27 -1.32816 36.91690 5345 ft 10 kts 324°
2026-04-26 12:27 -1.32761 36.91654 5347 ft 5 kts 346°
2026-04-26 12:28 -1.32735 36.91671 5347 ft 7 kts 43°
2026-04-26 12:28 -1.32712 36.91700 5345 ft 0 kts 54°
2026-04-26 12:29 -1.32614 36.91836 5341 ft 57 kts 53°
2026-04-26 12:29 -1.31610 36.93216 5375 ft 174 kts 56°
2026-04-26 12:30 -1.30929 36.94174 6231 ft 166 kts 57°
2026-04-26 12:30 -1.30261 36.95122 6986 ft 176 kts 57°
2026-04-26 12:30 -1.29501 36.96220 7364 ft 207 kts 56°
2026-04-26 12:31 -1.27489 36.97978 8103 ft 260 kts 25°
2026-04-26 12:31 -1.25683 36.98501 8787 ft 279 kts 12°
2026-04-26 12:31 -1.23070 36.98383 10098 ft 292 kts 342°
2026-04-26 12:31 -1.21335 36.97259 10835 ft 312 kts 314°
2026-04-26 12:32 -1.20502 36.96020 11163 ft 329 kts 295°
2026-04-26 12:32 -1.19988 36.93729 11728 ft 348 kts 274°
2026-04-26 12:32 -1.19623 36.88772 13190 ft 368 kts 276°
2026-04-26 12:33 -1.19347 36.86168 14029 ft 376 kts 277°
2026-04-26 12:33 -1.19031 36.83554 14789 ft 381 kts 278°
2026-04-26 12:33 -1.18696 36.80952 15554 ft 384 kts 278°
2026-04-26 12:33 -1.18341 36.78287 16310 ft 388 kts 278°
2026-04-26 12:34 -1.17979 36.75608 17046 ft 393 kts 278°
2026-04-26 12:34 -1.17606 36.72876 17686 ft 400 kts 279°
2026-04-26 12:34 -1.17225 36.70094 18354 ft 406 kts 279°
2026-04-26 12:34 -1.16839 36.67287 18952 ft 411 kts 279°
2026-04-26 12:35 -1.16253 36.64476 19607 ft 413 kts 287°
2026-04-26 12:35 -1.15413 36.61724 20232 ft 416 kts 289°
2026-04-26 12:35 -1.14467 36.58973 20862 ft 420 kts 291°
2026-04-26 12:35 -1.13458 36.56224 21526 ft 422 kts 291°
2026-04-26 12:36 -1.12419 36.53473 22116 ft 428 kts 292°
2026-04-26 12:36 -1.11353 36.50675 22687 ft 433 kts 292°
2026-04-26 12:36 -1.10275 36.47838 23356 ft 436 kts 292°
2026-04-26 12:36 -1.09214 36.45029 23934 ft 440 kts 292°
2026-04-26 12:37 -1.08133 36.42149 24416 ft 445 kts 292°
2026-04-26 12:37 -1.07048 36.39250 24982 ft 448 kts 291°
2026-04-26 12:37 -1.05951 36.36313 25727 ft 450 kts 291°
2026-04-26 12:37 -1.04852 36.33367 26384 ft 456 kts 292°
2026-04-26 12:38 -1.03737 36.30380 27005 ft 459 kts 291°
2026-04-26 12:38 -1.02619 36.27387 27623 ft 462 kts 291°
2026-04-26 12:38 -1.01492 36.24368 28275 ft 465 kts 291°
2026-04-26 12:38 -1.00355 36.21324 28756 ft 472 kts 291°
2026-04-26 12:39 -0.99201 36.18236 29395 ft 474 kts 291°
2026-04-26 12:39 -0.98042 36.15143 30007 ft 478 kts 292°
2026-04-26 12:39 -0.96872 36.12012 30454 ft 483 kts 292°
2026-04-26 12:39 -0.95697 36.08861 30990 ft 484 kts 291°
2026-04-26 12:40 -0.94521 36.05703 31476 ft 487 kts 291°
2026-04-26 12:40 -0.93333 36.02517 31926 ft 490 kts 291°
2026-04-26 12:40 -0.92157 35.99360 32413 ft 492 kts 291°
2026-04-26 12:40 -0.90957 35.96142 32832 ft 495 kts 291°
2026-04-26 12:41 -0.89752 35.92914 33235 ft 498 kts 291°
2026-04-26 12:41 -0.88537 35.89656 33636 ft 501 kts 291°
2026-04-26 12:41 -0.87315 35.86383 34023 ft 504 kts 291°
2026-04-26 12:41 -0.86085 35.83089 34337 ft 507 kts 291°
2026-04-26 12:42 -0.84854 35.79789 34778 ft 506 kts 291°
2026-04-26 12:42 -0.83627 35.76501 35292 ft 504 kts 291°
2026-04-26 12:42 -0.82409 35.73237 35770 ft 502 kts 291°
2026-04-26 12:42 -0.81182 35.69949 36060 ft 503 kts 291°
2026-04-26 12:43 -0.79959 35.66672 36111 ft 506 kts 291°
2026-04-26 12:43 -0.77496 35.60075 36093 ft 508 kts 291°
2026-04-26 12:44 -0.75027 35.53460 36077 ft 508 kts 291°
2026-04-26 12:44 -0.72557 35.46845 36080 ft 508 kts 291°
2026-04-26 12:45 -0.70085 35.40225 36064 ft 509 kts 291°
2026-04-26 12:45 -0.67585 35.33532 36049 ft 517 kts 291°
2026-04-26 12:46 -0.65066 35.26788 36048 ft 518 kts 291°
2026-04-26 12:46 -0.62560 35.20075 36028 ft 519 kts 291°
2026-04-26 12:47 -0.60035 35.13311 36004 ft 520 kts 291°
2026-04-26 12:47 -0.57505 35.06535 36005 ft 521 kts 291°
2026-04-26 12:48 -0.54968 34.99743 35987 ft 520 kts 291°
2026-04-26 12:48 -0.52442 34.92980 35969 ft 520 kts 291°
2026-04-26 12:49 -0.49914 34.86211 35949 ft 520 kts 291°
2026-04-26 12:49 -0.47398 34.79474 35935 ft 520 kts 291°
2026-04-26 12:50 -0.44867 34.72700 35926 ft 520 kts 291°
2026-04-26 12:50 -0.42352 34.65964 35921 ft 518 kts 291°
2026-04-26 12:51 -0.39832 34.59217 35916 ft 517 kts 291°
2026-04-26 12:51 -0.37329 34.52517 35910 ft 517 kts 291°
2026-04-26 12:52 -0.34811 34.45790 35911 ft 517 kts 291°
2026-04-26 12:52 -0.32297 34.39059 35915 ft 516 kts 291°
2026-04-26 12:53 -0.29788 34.32334 35914 ft 516 kts 291°
2026-04-26 12:53 -0.27277 34.25609 35914 ft 516 kts 290°
2026-04-26 12:54 -0.24770 34.18898 35915 ft 516 kts 290°
2026-04-26 12:54 -0.22260 34.12181 35913 ft 515 kts 290°
2026-04-26 12:55 -0.19749 34.05460 35914 ft 515 kts 290°
2026-04-26 12:55 -0.17261 33.98796 35915 ft 515 kts 290°
2026-04-26 12:56 -0.14532 33.92174 35914 ft 515 kts 294°
2026-04-26 12:56 -0.11696 33.85661 35286 ft 505 kts 294°
2026-04-26 12:56 -0.10302 33.82429 34317 ft 507 kts 294°
2026-04-26 12:57 -0.08916 33.79203 33214 ft 511 kts 294°
2026-04-26 12:57 -0.07517 33.75938 31977 ft 516 kts 294°
2026-04-26 12:57 -0.06097 33.72622 30735 ft 522 kts 294°
2026-04-26 12:58 -0.03229 33.65918 28501 ft 523 kts 294°
2026-04-26 12:58 -0.01801 33.62578 27643 ft 518 kts 294°
2026-04-26 12:58 -0.00396 33.59291 26815 ft 512 kts 294°
2026-04-26 12:58 0.00993 33.56040 25997 ft 506 kts 294°
2026-04-26 12:59 0.02374 33.52810 25196 ft 501 kts 294°
2026-04-26 12:59 0.03694 33.49616 24424 ft 496 kts 291°
2026-04-26 12:59 0.04835 33.46380 23806 ft 487 kts 290°
2026-04-26 12:59 0.05919 33.43229 23363 ft 475 kts 290°
2026-04-26 13:00 0.06990 33.40155 22830 ft 471 kts 290°
2026-04-26 13:00 0.08073 33.37084 22293 ft 469 kts 290°
2026-04-26 13:00 0.09162 33.34013 21767 ft 467 kts 290°
2026-04-26 13:00 0.10243 33.30977 21239 ft 463 kts 290°
2026-04-26 13:01 0.11325 33.27944 20730 ft 460 kts 290°
2026-04-26 13:01 0.12398 33.24935 20195 ft 457 kts 290°
2026-04-26 13:01 0.13464 33.21950 19685 ft 454 kts 290°
2026-04-26 13:01 0.14522 33.18987 19175 ft 452 kts 290°
2026-04-26 13:02 0.15577 33.16035 18658 ft 449 kts 290°
2026-04-26 13:02 0.16625 33.13104 18153 ft 445 kts 290°
2026-04-26 13:02 0.17647 33.10242 17597 ft 441 kts 290°
2026-04-26 13:02 0.18672 33.07374 17120 ft 438 kts 290°
2026-04-26 13:03 0.19669 33.04584 16639 ft 434 kts 290°
2026-04-26 13:03 0.20687 33.01736 16151 ft 431 kts 290°
2026-04-26 13:03 0.21692 32.98923 15667 ft 428 kts 290°
2026-04-26 13:03 0.22687 32.96139 15188 ft 424 kts 291°
2026-04-26 13:04 0.23677 32.93370 14668 ft 423 kts 291°
2026-04-26 13:04 0.24667 32.90600 13762 ft 422 kts 291°
2026-04-26 13:04 0.25650 32.87849 12815 ft 419 kts 290°
2026-04-26 13:04 0.26624 32.85125 11995 ft 413 kts 290°
2026-04-26 13:05 0.27565 32.82489 11205 ft 407 kts 290°
2026-04-26 13:05 0.28511 32.79844 10378 ft 401 kts 290°
2026-04-26 13:05 0.29432 32.77229 9539 ft 396 kts 289°
2026-04-26 13:05 0.29888 32.74538 8624 ft 392 kts 270°
2026-04-26 13:06 0.29638 32.71851 7782 ft 387 kts 262°
2026-04-26 13:06 0.29241 32.69206 6927 ft 381 kts 261°
2026-04-26 13:06 0.28848 32.66605 6191 ft 376 kts 261°
2026-04-26 13:06 0.28470 32.64040 5720 ft 373 kts 261°
2026-04-26 13:07 0.28103 32.61503 5574 ft 372 kts 261°
2026-04-26 13:07 0.27731 32.58905 5559 ft 372 kts 261°
2026-04-26 13:07 0.27373 32.56382 5564 ft 372 kts 261°
2026-04-26 13:07 0.27010 32.53817 5561 ft 372 kts 260°
2026-04-26 13:08 0.26645 32.51252 5564 ft 373 kts 261°
2026-04-26 13:08 0.26286 32.48680 5567 ft 373 kts 261°
2026-04-26 13:08 0.25928 32.46128 5564 ft 362 kts 260°
2026-04-26 13:08 0.25577 32.43745 5568 ft 332 kts 257°
2026-04-26 13:09 0.24647 32.41769 5565 ft 303 kts 228°
2026-04-26 13:09 0.23014 32.40635 5560 ft 276 kts 197°
2026-04-26 13:09 0.21218 32.40576 5563 ft 251 kts 163°
2026-04-26 13:09 0.19645 32.41123 5564 ft 233 kts 160°
2026-04-26 13:10 0.18145 32.41625 5555 ft 216 kts 162°
2026-04-26 13:10 0.16770 32.41992 5567 ft 199 kts 168°
2026-04-26 13:10 0.15411 32.42228 5576 ft 193 kts 170°
2026-04-26 13:10 0.14095 32.42426 5518 ft 190 kts 170°
2026-04-26 13:11 0.12826 32.42605 5280 ft 181 kts 171°
2026-04-26 13:11 0.11630 32.42770 5042 ft 167 kts 170°
2026-04-26 13:11 0.10516 32.42930 4836 ft 156 kts 171°
2026-04-26 13:11 0.09479 32.43075 4621 ft 145 kts 172°
2026-04-26 13:12 0.08522 32.43209 4427 ft 134 kts 171°
2026-04-26 13:12 0.07617 32.43338 4235 ft 129 kts 174°
2026-04-26 13:12 0.06740 32.43461 4067 ft 127 kts 173°
2026-04-26 13:12 0.05854 32.43578 3897 ft 130 kts 176°
2026-04-26 13:13 0.04963 32.43694 3794 ft 122 kts 166°
2026-04-26 13:13 0.04244 32.43800 3792 ft 88 kts 171°
2026-04-26 13:13 0.03728 32.43876 3796 ft 66 kts 173°
2026-04-26 13:13 0.03347 32.43928 3793 ft 43 kts 172°
2026-04-26 13:14 0.03104 32.43961 3795 ft 31 kts 172°
2026-04-26 13:14 0.02994 32.43983 3795 ft 13 kts 162°
2026-04-26 13:14 0.02916 32.44035 3801 ft 15 kts 141°
2026-04-26 13:14 0.02842 32.44095 3793 ft 15 kts 140°
2026-04-26 13:15 0.02825 32.44147 3795 ft 7 kts 61°
2026-04-26 13:15 0.02867 32.44166 3791 ft 8 kts
2026-04-26 13:15 0.02941 32.44157 3791 ft 13 kts 353°
2026-04-26 13:15 0.03008 32.44148 3793 ft 15 kts 352°
2026-04-26 13:16 0.03165 32.44126 3789 ft 19 kts 352°
2026-04-26 13:16 0.03299 32.44107 3791 ft 17 kts 352°
2026-04-26 13:16 0.03425 32.44089 3793 ft 20 kts 352°
2026-04-26 13:16 0.03566 32.44070 3787 ft 20 kts 352°
2026-04-26 13:17 0.03881 32.44026 3791 ft 25 kts 352°
2026-04-26 13:17 0.04058 32.44002 3786 ft 19 kts 352°
2026-04-26 13:18 0.04146 32.43990 3795 ft 0 kts 353°
2026-04-26 13:18 0.04190 32.43999 3791 ft 8 kts 43°
2026-04-26 13:18 0.04233 32.44135 3797 ft 8 kts 45°
2026-04-26 13:19 0.04267 32.44136 3791 ft 6 kts 351°
2026-04-26 13:19 0.04318 32.44128 3789 ft 9 kts 351°
2026-04-26 13:19 0.04392 32.44116 3789 ft 12 kts 351°
2026-04-26 13:19 0.04487 32.44103 3786 ft 15 kts 352°
2026-04-26 13:20 0.04598 32.44089 3789 ft 18 kts 353°
2026-04-26 13:20 0.04682 32.44078 3795 ft 0 kts 352°
2026-04-26 13:20 0.04700 32.44076 3788 ft 11 kts 358°
2026-04-26 13:20 0.04722 32.44094 3791 ft 2 kts 78°
2026-04-26 13:21 0.04721 32.44118 3791 ft 5 kts 95°
2026-04-26 13:21 0.04724 32.44145 3792 ft 0 kts 82°
2026-04-26 13:21 0.04724 32.44146 3792 ft 1 kts 82°
2026-04-26 13:21 0.04725 32.44156 3789 ft 2 kts 81°
2026-04-26 13:22 0.04726 32.44157 3790 ft 0 kts 81°